Location: Round Knob
(37.2473°N, 88.7376°W)
Time: 15:00:22
(UTC+00:00)

Helios 1A Rocket - Pass Details

Date: 29 October 2020
Orbit: 563 x 586 km, 98.3° (Epoch: 03 December)

Event Time Altitude Azimuth Distance (km) Brightness Sun altitude
Rises 23:35:36 0° 136° (SE) 2,795 6.1 -7.7°
Reaches altitude 10° 23:38:05 10° 121° (ESE) 1,896 5.1 -8.2°
Maximum altitude 23:41:19 23° 69° (ENE) 1,252 4.0 -8.9°
Drops below altitude 10° 23:44:34 10° 17° (NNE) 1,896 5.3 -9.5°
Sets 23:47:03 0° 3° (N) 2,795 6.3 -10.0°
